| time (UTC) | temp C | wind direction | speed KPH | gust KPH | rain 1hr cm | rain 24hr cm | rain mn cm | humidity % | barometer mb |
| 20260902144000 | 27 | 38 | 1.6 | 4.8 | 0.00 | 0.00 | 0.00 | 41 | 1021.9 |
| 20260902143000 | 26 | 324 | 4.8 | 4.8 | 0.00 | 0.00 | 0.00 | 42 | 1021.9 |
| 20260902142000 | 26 | 8 | 0.0 | 4.8 | 0.00 | 0.00 | 0.00 | 42 | 1021.9 |
| 20260902141000 | 27 | 354 | 0.0 | 1.6 | 0.00 | 0.00 | 0.00 | 40 | 1021.9 |
| 20260902140000 | 26 | 341 | 3.2 | 6.4 | 0.00 | 0.00 | 0.00 | 40 | 1022.0 |
| 20260902135000 | 26 | 339 | 1.6 | 9.7 | 0.00 | 0.00 | 0.00 | 40 | 1021.8 |
| 20260902134000 | 26 | 355 | 3.2 | 4.8 | 0.00 | 0.00 | 0.00 | 41 | 1022.2 |
| 20260902133000 | 25 | 3 | 1.6 | 9.7 | 0.00 | 0.00 | 0.00 | 41 | 1021.9 |
| 20260902132000 | 26 | 357 | 3.2 | 9.7 | 0.00 | 0.00 | 0.00 | 39 | 1022.2 |
| 20260902131000 | 26 | 18 | 3.2 | 12.9 | 0.00 | 0.00 | 0.00 | 42 | 1022.1 |
| 20260902130000 | 26 | 329 | 1.6 | 3.2 | 0.00 | 0.00 | 0.00 | 42 | 1022.2 |
| 20260902125000 | 25 | 341 | 0.0 | 4.8 | 0.00 | 0.00 | 0.00 | 44 | 1022.4 |
| 20260902124000 | 24 | 344 | 1.6 | 9.7 | 0.00 | 0.00 | 0.00 | 46 | 1022.3 |
| 20260902123000 | 25 | 356 | 8.0 | 11.3 | 0.00 | 0.00 | 0.00 | 47 | 1022.4 |
| 20260902122000 | 25 | 359 | 3.2 | 6.4 | 0.00 | 0.00 | 0.00 | 42 | 1022.5 |
| 20260902121000 | 25 | 337 | 1.6 | 3.2 | 0.00 | 0.00 | 0.00 | 44 | 1022.3 |
| 20260902120000 | 25 | 350 | 0.0 | 4.8 | 0.00 | 0.00 | 0.00 | 42 | 1022.5 |
| 20260902115000 | 25 | 322 | 1.6 | 9.7 | 0.00 | 0.00 | 0.00 | 42 | 1022.6 |
| 20260902114000 | 25 | 38 | 11.3 | 12.9 | 0.00 | 0.00 | 0.00 | 44 | 1022.8 |
| 20260902113000 | 24 | 4 | 4.8 | 6.4 | 0.00 | 0.00 | 0.00 | 46 | 1023.0 |
| 20260902112000 | 24 | 321 | 1.6 | 4.8 | 0.00 | 0.00 | 0.00 | 47 | 1023.0 |
| 20260902111000 | 24 | 327 | 3.2 | 9.7 | 0.00 | 0.00 | 0.00 | 48 | 1022.8 |
| 20260902110000 | 23 | 357 | 3.2 | 6.4 | 0.00 | 0.00 | 0.00 | 50 | 1023.2 |
| 20260902105000 | 23 | 339 | 3.2 | 4.8 | 0.00 | 0.00 | 0.00 | 54 | 1023.1 |
| 20260902104000 | 22 | 357 | 3.2 | 12.9 | 0.00 | 0.00 | 0.00 | 56 | 1023.4 |
| 20260902103000 | 22 | 62 | 3.2 | 4.8 | 0.00 | 0.00 | 0.00 | 57 | 1023.3 |
| 20260902102000 | 21 | 8 | 6.4 | 6.4 | 0.00 | 0.00 | 0.00 | 59 | 1023.3 |
| 20260902101000 | 22 | 28 | 6.4 | 9.7 | 0.00 | 0.00 | 0.00 | 59 | 1023.6 |
| 20260902100000 | 21 | 356 | 6.4 | 6.4 | 0.00 | 0.00 | 0.00 | 60 | 1023.7 |
| 20260902095000 | 21 | 342 | 1.6 | 4.8 | 0.00 | 0.00 | 0.00 | 61 | 1023.5 |
| 20260902094000 | 21 | 2 | 8.0 | 11.3 | 0.00 | 0.00 | 0.00 | 63 | 1023.8 |
| 20260902093000 | 20 | 54 | 6.4 | 9.7 | 0.00 | 0.00 | 0.00 | 64 | 1023.6 |
| 20260902092000 | 20 | 339 | 6.4 | 6.4 | 0.00 | 0.00 | 0.00 | 69 | 1023.6 |
| 20260902091000 | 20 | 328 | 1.6 | 6.4 | 0.00 | 0.00 | 0.00 | 70 | 1023.5 |
| 20260902090000 | 19 | 30 | 4.8 | 6.4 | 0.00 | 0.00 | 0.00 | 70 | 1023.8 |
| 20260902085000 | 18 | 8 | 4.8 | 4.8 | 0.00 | 0.00 | 0.00 | 73 | 1023.8 |
| 20260902084000 | 17 | 340 | 1.6 | 6.4 | 0.00 | 0.00 | 0.00 | 76 | 1023.9 |
| 20260902083000 | 17 | 357 | 3.2 | 6.4 | 0.00 | 0.00 | 0.00 | 76 | 1023.2 |
| 20260902082000 | 17 | 354 | 1.6 | 4.8 | 0.00 | 0.00 | 0.00 | 76 | 1023.6 |
| 20260902081000 | 17 | 347 | 1.6 | 3.2 | 0.00 | 0.00 | 0.00 | 76 | 1023.6 |
| 20260902080000 | 17 | 44 | 1.6 | 3.2 | 0.00 | 0.00 | 0.00 | 77 | 1023.5 |
| 20260902075000 | 16 | 99 | 4.8 | 4.8 | 0.00 | 0.00 | 0.00 | 83 | 1023.2 |
| 20260902074000 | 17 | 55 | 4.8 | 4.8 | 0.00 | 0.00 | 0.00 | 82 | 1023.0 |
| 20260902073000 | 16 | 337 | 0.0 | 1.6 | 0.00 | 0.00 | 0.00 | 80 | 1023.3 |
| 20260902072000 | 16 | 337 | 1.6 | 1.6 | 0.00 | 0.00 | 0.00 | 82 | 1023.0 |
| 20260902071000 | 16 | 323 | 1.6 | 1.6 | 0.00 | 0.00 | 0.00 | 80 | 1023.2 |
| 20260902070000 | 16 | 326 | 0.0 | 3.2 | 0.00 | 0.00 | 0.00 | 83 | 1023.1 |
| 20260902065000 | 14 | 338 | 0.0 | 1.6 | 0.00 | 0.00 | 0.00 | 90 | 1023.1 |
| 20260902064000 | 13 | 357 | 1.6 | 1.6 | 0.00 | 0.00 | 0.00 | 91 | 1023.4 |
| 20260902063000 | 12 | 335 | 1.6 | 1.6 | 0.00 | 0.00 | 0.00 | 96 | 1023.2 |
| 20260902062000 | 11 | 358 | 0.0 | 0.0 | 0.00 | 0.00 | 0.00 | 96 | 1023.3 |
| 20260902061000 | 11 | 358 | 0.0 | 0.0 | 0.00 | 0.00 | 0.00 | 97 | 1023.4 |
| 20260902060000 | 11 | 334 | 1.6 | 3.2 | 0.00 | 0.00 | 0.00 | 97 | 1023.3 |
| 20260902055000 | 11 | 349 | 3.2 | 3.2 | 0.00 | 0.00 | 0.00 | 96 | 1023.2 |
| 20260902054000 | 11 | 346 | 1.6 | 3.2 | 0.00 | 0.00 | 0.00 | 97 | 1023.1 |
| 20260902053000 | 11 | 3 | 0.0 | 0.0 | 0.00 | 0.00 | 0.00 | 98 | 1023.2 |
| 20260902052000 | 11 | 349 | 3.2 | 3.2 | 0.00 | 0.00 | 0.00 | 98 | 1023.2 |
| 20260902051000 | 11 | 343 | 1.6 | 1.6 | 0.00 | 0.00 | 0.00 | 98 | 1022.8 |
| 20260902050000 | 11 | 358 | 0.0 | 1.6 | 0.00 | 0.00 | 0.00 | 98 | 1023.0 |
| 20260902045000 | 11 | 359 | 0.0 | 0.0 | 0.00 | 0.00 | 0.00 | 98 | 1022.9 |
| 20260902044000 | 11 | 359 | 0.0 | 0.0 | 0.00 | 0.00 | 0.00 | 98 | 1022.9 |
| 20260902043000 | 11 | 359 | 0.0 | 1.6 | 0.00 | 0.00 | 0.00 | 98 | 1022.7 |
| 20260902042000 | 11 | 359 | 1.6 | 1.6 | 0.00 | 0.00 | 0.00 | 98 | 1022.8 |
| 20260902041000 | 11 | 346 | 0.0 | 1.6 | 0.00 | 0.00 | 0.00 | 98 | 1022.7 |
| 20260902040000 | 11 | 1 | 3.2 | 4.8 | 0.00 | 0.00 | 0.00 | 99 | 1022.6 |
| 20260902035000 | 11 | 332 | 1.6 | 1.6 | 0.00 | 0.00 | 0.00 | 98 | 1022.7 |
| 20260902034000 | 11 | 334 | 1.6 | 1.6 | 0.00 | 0.00 | 0.00 | 98 | 1022.5 |
| 20260902033000 | 11 | 353 | 1.6 | 3.2 | 0.00 | 0.00 | 0.00 | 98 | 1023.0 |
| 20260902032000 | 11 | 0 | 3.2 | 4.8 | 0.00 | 0.00 | 0.00 | 99 | 1022.7 |
| 20260902031000 | 11 | 330 | 3.2 | 3.2 | 0.00 | 0.00 | 0.00 | 98 | 1022.5 |
| 20260902030000 | 11 | 340 | 1.6 | 3.2 | 0.00 | 0.00 | 0.00 | 98 | 1022.7 |
| 20260902025000 | 11 | 358 | 1.6 | 1.6 | 0.00 | 0.00 | 0.00 | 98 | 1022.8 |
| 20260902024000 | 11 | 2 | 1.6 | 3.2 | 0.00 | 0.00 | 0.00 | 98 | 1022.5 |
| 20260902023000 | 11 | 5 | 1.6 | 1.6 | 0.00 | 0.00 | 0.00 | 98 | 1022.7 |
| 20260902022000 | 11 | 6 | 0.0 | 0.0 | 0.00 | 0.00 | 0.00 | 97 | 1022.7 |
| 20260902021000 | 11 | 21 | 1.6 | 1.6 | 0.00 | 0.00 | 0.00 | 97 | 1022.8 |
| 20260902020000 | 11 | 347 | 0.0 | 0.0 | 0.00 | 0.00 | 0.00 | 97 | 1022.7 |
| 20260902015000 | 12 | 350 | 0.0 | 0.0 | 0.00 | 0.00 | 0.00 | 97 | 1022.5 |
| 20260902014000 | 12 | 333 | 0.0 | 0.0 | 0.00 | 0.00 | 0.00 | 97 | 1022.5 |
| 20260902013000 | 12 | 333 | 0.0 | 0.0 | 0.00 | 0.00 | 0.00 | 97 | 1022.7 |
| 20260902012000 | 12 | 353 | 1.6 | 1.6 | 0.00 | 0.00 | 0.00 | 97 | 1022.6 |
| 20260902011000 | 12 | 348 | 1.6 | 3.2 | 0.00 | 0.00 | 0.00 | 97 | 1022.6 |
| 20260902010000 | 12 | 339 | 0.0 | 3.2 | 0.00 | 0.00 | 0.00 | 96 | 1022.8 |
| 20260902005000 | 12 | 342 | 0.0 | 1.6 | 0.00 | 0.00 | 0.00 | 96 | 1022.8 |
| 20260902004000 | 12 | 358 | 0.0 | 1.6 | 0.00 | 0.00 | 0.00 | 96 | 1022.8 |
| 20260902003000 | 12 | 345 | 1.6 | 3.2 | 0.00 | 0.00 | 0.00 | 96 | 1022.9 |
| 20260902002000 | 12 | 346 | 1.6 | 1.6 | 0.00 | 0.00 | 0.00 | 95 | 1022.7 |
| 20260902001000 | 13 | 338 | 1.6 | 1.6 | 0.00 | 0.00 | 0.00 | 94 | 1022.8 |
| 20260902000000 | 13 | 335 | 1.6 | 3.2 | 0.00 | 0.00 | 0.00 | 92 | 1022.5 |
| 20260901235000 | 13 | 340 | 0.0 | 1.6 | 0.00 | 0.00 | 0.00 | 93 | 1022.9 |
| 20260901234000 | 13 | 340 | 0.0 | 1.6 | 0.00 | 0.00 | 0.00 | 93 | 1022.6 |
| 20260901233000 | 13 | 340 | 0.0 | 1.6 | 0.00 | 0.00 | 0.00 | 93 | 1022.6 |
| 20260901232000 | 13 | 337 | 1.6 | 1.6 | 0.00 | 0.00 | 0.00 | 91 | 1022.7 |
| 20260901231000 | 13 | 340 | 0.0 | 0.0 | 0.00 | 0.00 | 0.00 | 92 | 1022.6 |
| 20260901230000 | 13 | 340 | 0.0 | 0.0 | 0.00 | 0.00 | 0.00 | 90 | 1022.6 |
| 20260901225000 | 14 | 340 | 1.6 | 1.6 | 0.00 | 0.00 | 0.00 | 91 | 1022.7 |
| 20260901224000 | 14 | 340 | 1.6 | 1.6 | 0.00 | 0.00 | 0.00 | 90 | 1022.3 |
| 20260901223000 | 14 | 339 | 0.0 | 0.0 | 0.00 | 0.00 | 0.00 | 91 | 1022.7 |
| 20260901222000 | 14 | 339 | 0.0 | 0.0 | 0.00 | 0.00 | 0.00 | 90 | 1022.8 |
| 20260901221000 | 14 | 339 | 0.0 | 0.0 | 0.00 | 0.00 | 0.00 | 89 | 1022.6 |
| 20260901220000 | 15 | 339 | 0.0 | 0.0 | 0.00 | 0.00 | 0.00 | 88 | 1022.6 |
| 20260901215000 | 15 | 339 | 1.6 | 1.6 | 0.00 | 0.00 | 0.00 | 87 | 1022.5 |
| 20260901214000 | 15 | 337 | 1.6 | 1.6 | 0.00 | 0.00 | 0.00 | 87 | 1022.4 |
| 20260901213000 | 15 | 340 | 1.6 | 1.6 | 0.00 | 0.00 | 0.00 | 86 | 1022.7 |
| 20260901212000 | 15 | 340 | 0.0 | 1.6 | 0.00 | 0.00 | 0.00 | 84 | 1022.6 |
| 20260901211000 | 15 | 341 | 0.0 | 1.6 | 0.00 | 0.00 | 0.00 | 84 | 1022.7 |
| 20260901210000 | 16 | 347 | 1.6 | 3.2 | 0.00 | 0.00 | 0.00 | 83 | 1022.8 |
| 20260901205000 | 16 | 344 | 3.2 | 3.2 | 0.00 | 0.00 | 0.00 | 80 | 1022.8 |
| 20260901204000 | 16 | 343 | 1.6 | 1.6 | 0.00 | 0.00 | 0.00 | 76 | 1022.5 |
| 20260901203000 | 16 | 341 | 1.6 | 1.6 | 0.00 | 0.00 | 0.00 | 79 | 1022.6 |
| 20260901202000 | 17 | 336 | 1.6 | 3.2 | 0.00 | 0.00 | 0.00 | 78 | 1022.8 |
| 20260901201000 | 17 | 6 | 0.0 | 1.6 | 0.00 | 0.00 | 0.00 | 75 | 1022.5 |
| 20260901200000 | 17 | 6 | 0.0 | 1.6 | 0.00 | 0.00 | 0.00 | 77 | 1022.7 |
| 20260901195000 | 17 | 7 | 1.6 | 1.6 | 0.00 | 0.00 | 0.00 | 74 | 1022.7 |
| 20260901194000 | 17 | 8 | 0.0 | 0.0 | 0.00 | 0.00 | 0.00 | 75 | 1022.5 |
| 20260901193000 | 18 | 8 | 0.0 | 0.0 | 0.00 | 0.00 | 0.00 | 72 | 1022.4 |
| 20260901192000 | 18 | 346 | 0.0 | 1.6 | 0.00 | 0.00 | 0.00 | 71 | 1022.3 |
| 20260901191000 | 19 | 317 | 0.0 | 0.0 | 0.00 | 0.00 | 0.00 | 66 | 1022.4 |
| 20260901190000 | 20 | 331 | 0.0 | 0.0 | 0.00 | 0.00 | 0.00 | 66 | 1022.2 |
| 20260901185000 | 20 | 282 | 1.6 | 3.2 | 0.00 | 0.00 | 0.00 | 63 | 1022.3 |
| 20260901184000 | 20 | 307 | 1.6 | 3.2 | 0.00 | 0.00 | 0.00 | 62 | 1022.1 |
| 20260901183000 | 21 | 295 | 1.6 | 3.2 | 0.00 | 0.00 | 0.00 | 61 | 1022.0 |
| 20260901182000 | 21 | 303 | 1.6 | 3.2 | 0.00 | 0.00 | 0.00 | 59 | 1022.0 |
| 20260901181000 | 21 | 260 | 3.2 | 3.2 | 0.00 | 0.00 | 0.00 | 58 | 1021.9 |
| 20260901180000 | 21 | 281 | 3.2 | 4.8 | 0.00 | 0.00 | 0.00 | 57 | 1021.8 |
| 20260901175000 | 22 | 262 | 3.2 | 4.8 | 0.00 | 0.00 | 0.00 | 57 | 1022.0 |
| 20260901174000 | 22 | 245 | 3.2 | 3.2 | 0.00 | 0.00 | 0.00 | 55 | 1021.7 |
| 20260901173000 | 22 | 298 | 3.2 | 3.2 | 0.00 | 0.00 | 0.00 | 56 | 1021.7 |
| 20260901172000 | 22 | 208 | 3.2 | 6.4 | 0.00 | 0.00 | 0.00 | 53 | 1021.7 |
| 20260901171000 | 23 | 247 | 4.8 | 6.4 | 0.00 | 0.00 | 0.00 | 53 | 1021.7 |
| 20260901170000 | 23 | 219 | 4.8 | 12.9 | 0.00 | 0.00 | 0.00 | 51 | 1021.7 |
| 20260901165000 | 23 | 264 | 3.2 | 6.4 | 0.00 | 0.00 | 0.00 | 49 | 1021.6 |
| 20260901164000 | 24 | 144 | 3.2 | 3.2 | 0.00 | 0.00 | 0.00 | 47 | 1021.8 |
| 20260901163000 | 24 | 27 | 3.2 | 3.2 | 0.00 | 0.00 | 0.00 | 47 | 1021.8 |
| 20260901162000 | 24 | 180 | 4.8 | 6.4 | 0.00 | 0.00 | 0.00 | 47 | 1021.7 |
| 20260901161000 | 24 | 108 | 6.4 | 6.4 | 0.00 | 0.00 | 0.00 | 47 | 1021.7 |
| 20260901160000 | 25 | 334 | 0.0 | 3.2 | 0.00 | 0.00 | 0.00 | 45 | 1021.6 |
| 20260901155000 | 25 | 206 | 3.2 | 6.4 | 0.00 | 0.00 | 0.00 | 45 | 1021.7 |
| 20260901154000 | 26 | 336 | 1.6 | 1.6 | 0.00 | 0.00 | 0.00 | 42 | 1021.6 |
| 20260901153000 | 26 | 10 | 1.6 | 4.8 | 0.00 | 0.00 | 0.00 | 44 | 1021.9 |
| 20260901152000 | 25 | 4 | 1.6 | 3.2 | 0.00 | 0.00 | 0.00 | 44 | 1021.8 |
| 20260901151000 | 25 | 24 | 1.6 | 4.8 | 0.00 | 0.00 | 0.00 | 44 | 1021.7 |
| 20260901150000 | 25 | 59 | 4.8 | 4.8 | 0.00 | 0.00 | 0.00 | 44 | 1021.7 |
| 20260901145001 | 25 | 349 | 0.0 | 4.8 | 0.00 | 0.00 | 0.00 | 44 | 1022.0 |